Location: Clover
(42.5131°N, 114.6874°W)
Time: 19:35:03
(UTC+00:00)

S-56A Canister/Altair - Visible Passes

Search period start: 07 November 2024 00:00
Search period end: 17 November 2024 00:00
Orbit: 635 x 2487 km, 38.9° (Epoch: 06 November)

Date Brightness Start Highest point End Pass type
(mag) Time Alt. Az. Time Alt. Az. Time Alt. Az.
07 Nov 11.6 07:44:08 14° E 07:44:08 14° E 07:45:41 10° E visible
07 Nov 10.2 09:41:26 55° ESE 09:41:26 55° ESE 09:52:59 10° E visible
07 Nov 9.9 11:38:45 46° WSW 11:44:43 78° S 11:59:00 10° E visible
07 Nov 10.2 13:36:21 10° W 13:51:09 63° SSW 14:03:36 10° SE visible
08 Nov 10.6 09:09:06 41° E 09:09:06 41° E 09:17:58 10° E visible
08 Nov 9.8 11:06:24 62° WSW 11:09:36 77° S 11:24:16 10° E visible
08 Nov 10.1 13:03:43 17° W 13:16:11 66° SSW 13:29:17 10° ESE visible
09 Nov 11.0 08:36:45 29° E 08:36:45 29° E 08:42:51 10° E visible
09 Nov 9.7 10:34:04 76° S 10:34:29 77° S 10:49:26 10° E visible
09 Nov 10.0 12:31:22 27° W 12:41:10 70° SSW 12:54:51 10° ESE visible
10 Nov 11.3 08:04:25 19° E 08:04:25 19° E 08:07:39 10° E visible
10 Nov 10.0 10:01:43 67° ESE 10:01:43 67° ESE 10:14:30 10° E visible
10 Nov 10.0 11:59:01 39° W 12:06:06 72° SSW 12:20:18 10° ESE visible
11 Nov 11.7 07:32:05 11° E 07:32:05 11° E 07:32:23 10° E visible
11 Nov 10.3 09:29:24 49° E 09:29:24 49° E 09:39:28 10° E visible
11 Nov 9.8 11:26:42 54° WSW 11:31:00 74° S 11:45:37 10° ESE visible
11 Nov 10.3 13:24:01 13° W 13:37:00 50° SSW 13:49:39 10° SE visible
12 Nov 10.8 08:57:05 35° E 08:57:05 35° E 09:04:22 10° E visible
12 Nov 9.7 10:54:23 71° SW 10:55:53 76° S 11:10:49 10° ESE visible
12 Nov 10.2 12:51:42 22° W 13:02:05 54° SSW 13:15:24 10° SE visible
13 Nov 11.2 08:24:47 23° E 08:24:47 23° E 08:29:10 10° E visible
13 Nov 9.8 10:22:06 73° SE 10:22:06 73° SE 10:35:54 10° ESE visible
13 Nov 10.1 12:19:25 32° W 12:27:07 58° SSW 12:40:59 10° SE visible
14 Nov 11.5 07:52:32 14° E 07:52:32 14° E 07:53:56 10° E visible
14 Nov 10.2 09:49:50 56° ESE 09:49:50 56° ESE 10:00:52 10° E visible
14 Nov 10.0 11:47:09 45° WSW 11:52:06 61° SSW 12:06:26 10° SE visible
14 Nov 10.7 13:44:58 10° W 13:57:13 32° SW 14:08:38 10° SSE visible
15 Nov 10.6 09:17:37 39° ESE 09:17:37 39° ESE 09:25:46 10° E visible
15 Nov 9.8 11:14:56 60° SW 11:17:04 65° SSW 11:31:44 10° ESE visible
15 Nov 10.6 13:12:15 16° W 13:22:28 36° SW 13:34:40 10° SSE visible
16 Nov 11.1 08:45:26 26° E 08:45:26 26° E 08:50:35 10° E visible
16 Nov 9.8 10:42:45 67° S 10:42:45 67° S 10:56:55 10° ESE visible
16 Nov 10.4 12:40:04 25° W 12:47:39 40° SW 13:00:31 10° SSE visible
